TimeMST,TemperatureF,Dew PointF,Humidity,Sea Level PressureIn,VisibilityMPH,Wind Direction,Wind SpeedMPH,Gust SpeedMPH,PrecipitationIn,Events,Conditions,WindDirDegrees,DateUTC
12:53 AM,37.0,30.0,76,29.49,10.0,SSE,16.1,-,0.00,Rain,Light Rain,160,2013-01-11 07:53:00
1:53 AM,37.0,28.0,70,29.48,10.0,West,18.4,27.6,0.00,,Overcast,270,2013-01-11 08:53:00
1:55 AM,35.6,28.4,75,29.46,10.0,West,18.4,27.6,0.00,Rain,Light Rain,260,2013-01-11 08:55:00
2:04 AM,30.2,30.2,100,29.48,2.5,West,16.1,28.8,0.00,Snow,Light Snow,260,2013-01-11 09:04:00
2:14 AM,28.4,28.4,100,29.49,0.8,West,23.0,29.9,0.00,Snow,Light Snow,270,2013-01-11 09:14:00
2:29 AM,28.4,28.4,100,29.50,0.2,West,16.1,25.3,0.06,Fog-Snow,Heavy Snow,270,2013-01-11 09:29:00
2:45 AM,28.4,28.4,100,29.50,1.0,West,10.4,-,0.12,Snow,Light Snow,280,2013-01-11 09:45:00
2:53 AM,28.0,28.0,100,29.54,1.2,NW,10.4,-,0.13,Snow,Light Snow,310,2013-01-11 09:53:00
3:00 AM,28.4,28.4,100,29.48,3.0,NW,8.1,-,0.00,Snow,Light Snow,310,2013-01-11 10:00:00
3:10 AM,26.6,26.6,100,29.47,8.0,NNW,13.8,-,0.00,Snow,Light Snow,330,2013-01-11 10:10:00
3:53 AM,27.0,26.1,96,29.50,10.0,NW,9.2,-,0.00,,Overcast,320,2013-01-11 10:53:00
4:53 AM,24.1,23.0,96,29.47,10.0,NNW,8.1,-,N/A,,Scattered Clouds,330,2013-01-11 11:53:00
5:53 AM,21.9,18.0,85,29.51,10.0,WNW,10.4,-,N/A,,Scattered Clouds,290,2013-01-11 12:53:00
6:53 AM,25.0,14.0,63,29.57,10.0,WSW,13.8,-,N/A,,Scattered Clouds,250,2013-01-11 13:53:00
7:43 AM,21.2,19.4,93,29.59,10.0,WNW,18.4,-,N/A,,Overcast,300,2013-01-11 14:43:00
7:53 AM,21.9,19.9,92,29.65,10.0,WNW,17.3,-,N/A,,Overcast,300,2013-01-11 14:53:00
8:53 AM,23.0,16.0,74,29.68,10.0,WSW,19.6,-,0.00,,Mostly Cloudy,250,2013-01-11 15:53:00
9:53 AM,25.0,14.0,63,29.68,10.0,West,10.4,-,N/A,,Mostly Cloudy,270,2013-01-11 16:53:00
10:53 AM,21.0,12.0,68,29.73,10.0,NW,16.1,-,N/A,,Mostly Cloudy,310,2013-01-11 17:53:00
11:53 AM,21.9,12.0,66,29.73,10.0,WNW,13.8,-,N/A,,Mostly Cloudy,300,2013-01-11 18:53:00
12:02 PM,23.0,10.4,59,29.69,10.0,WNW,12.7,-,N/A,,Mostly Cloudy,300,2013-01-11 19:02:00
12:53 PM,23.0,8.6,54,29.70,10.0,NW,13.8,-,N/A,,Mostly Cloudy,310,2013-01-11 19:53:00
1:53 PM,21.9,10.9,63,29.75,10.0,North,8.1,-,N/A,,Mostly Cloudy,350,2013-01-11 20:53:00
2:53 PM,21.9,9.0,58,29.82,10.0,NW,11.5,-,N/A,,Mostly Cloudy,310,2013-01-11 21:53:00
3:53 PM,24.1,9.0,53,29.84,10.0,North,9.2,-,N/A,,Partly Cloudy,360,2013-01-11 22:53:00
4:53 PM,24.1,3.0,40,29.87,10.0,WNW,5.8,-,N/A,,Mostly Cloudy,300,2013-01-11 23:53:00
5:53 PM,24.1,1.9,38,29.91,10.0,Variable,5.8,18.4,N/A,,Overcast,0,2013-01-12 00:53:00
6:53 PM,19.0,1.0,46,29.94,10.0,WNW,3.5,-,N/A,,Clear,290,2013-01-12 01:53:00
7:53 PM,7.0,-2.0,67,30.01,10.0,ENE,4.6,-,N/A,,Clear,60,2013-01-12 02:53:00
8:53 PM,12.0,-0.0,59,30.00,10.0,East,3.5,-,N/A,,Mostly Cloudy,80,2013-01-12 03:53:00
9:53 PM,10.0,-0.9,61,30.01,10.0,Calm,Calm,-,N/A,,Partly Cloudy,0,2013-01-12 04:53:00
10:53 PM,10.9,-2.0,56,30.04,10.0,Calm,Calm,-,N/A,,Scattered Clouds,0,2013-01-12 05:53:00
11:53 PM,3.9,-4.0,70,30.07,10.0,East,5.8,-,N/A,,Clear,80,2013-01-12 06:53:00